Home > Weather > Ashgabat > Past weeks

Flag for Turkmenistan Weather for the Past 2 Weeks in Ashgabat, Turkmenistan

Now
34 °F

Light snow. Low clouds.


Feels Like: 25 °F
Forecast: 31 / 37 °F
Wind: 12 mph from Northwest

Location: Ashgabat

Current Time: Feb 9, 2016 at 12:17:01 AM

Latest Report: Feb 9, 2016 at 12:00 AM


Visibility: 4 mi

Pressure: 30.33 "Hg

Humidity: 93%

Dew point: 32 °F

Location of AshgabatLocation

Historic Weather in Ashgabat — Graph

°F

Ashgabat Temperature Yesterday

Maximum temperature yesterday: 50 °F (at 12:00 AM)
Minimum temperature yesterday: 34 °F (at 9:30 PM)
Average temperature yesterday: 41 °F

High & Low Weather Summary for the Past Weeks

 TemperatureHumidityPressure
High73 °F (Feb 7, 4:00 PM)100% (Jan 25, 10:00 PM)30.45 "Hg (Jan 25, 10:00 PM)
Low30 °F (Jan 27, 5:30 PM)17% (Feb 7, 4:00 PM)29.77 "Hg (Feb 6, 3:00 PM)
Average42 °F80%30.15 "Hg
* Reported Jan 24 11:00 PM — Feb 8 11:00 PM, Ashgabat, Weather by CustomWeather, © 2016

Note: Actual official high and low records may vary slightly from our data, if they occured in-between our weather recording intervals... More about our weather records

Advertising

Ashgabat Weather History for the Previous 24 Hours

 ConditionsComfort  
Time TempWeatherWind HumidityBarometerVisibility
11:00 PM
Mon, Feb 8
34 °FLight rain. Low clouds.10 mph93%30.33 "Hg3 mi
10:30 PM34 °FLight rain. Low clouds.9 mph100%30.30 "Hg3 mi
10:00 PM36 °FLight rain. Low clouds.7 mph93%30.30 "Hg3 mi
9:30 PM34 °FLight rain. Low clouds.10 mph100%30.30 "Hg4 mi
9:00 PM36 °FLight rain. Low clouds.9 mph93%30.30 "Hg5 mi
8:30 PM36 °FSprinkles. Mostly cloudy.10 mph93%30.30 "Hg5 mi
8:00 PM36 °FSnow flurries. Mostly cloudy.13 mph93%30.27 "Hg4 mi
7:30 PM37 °FLight rain. Low clouds.12 mph93%30.24 "Hg5 mi
7:00 PM39 °FLight rain. Low clouds.9 mph93%30.24 "Hg5 mi
6:30 PM39 °FLight rain. Overcast.10 mph93%30.21 "Hg3 mi
6:00 PM39 °FLight rain. Low clouds.10 mph93%30.21 "Hg4 mi
5:30 PM39 °FLight rain. Overcast.10 mph93%30.21 "Hg4 mi
5:00 PM39 °FLight rain. Low clouds.9 mph93%30.18 "Hg3 mi
4:30 PM39 °FLow clouds.9 mph93%30.18 "Hg6 mi
4:00 PM41 °FLight rain. Low clouds.10 mph87%30.18 "HgN/A
3:30 PM41 °FSprinkles. Mostly cloudy.9 mph87%30.18 "HgN/A
3:00 PM41 °FSprinkles. Mostly cloudy.9 mph87%30.18 "Hg5 mi
2:30 PM41 °FSprinkles. Mostly cloudy.10 mph93%30.18 "Hg5 mi
2:00 PM41 °FDrizzle. Fog.10 mph93%30.18 "Hg2 mi
1:30 PM41 °FDrizzle. Fog.12 mph93%30.18 "Hg2 mi
1:00 PM41 °FDrizzle. Fog.9 mph100%30.18 "Hg2 mi
12:30 PM41 °FDrizzle. Fog.7 mph93%30.21 "Hg2 mi
12:00 PM41 °FDrizzle. Fog.8 mph93%30.21 "Hg3 mi
11:30 AM41 °FDrizzle. Fog.8 mph93%30.21 "Hg3 mi
11:00 AM41 °FDrizzle. Fog.8 mph93%30.21 "Hg2 mi
10:30 AM41 °FDrizzle. Fog.8 mph93%30.21 "Hg2 mi
10:00 AM41 °FDrizzle. Low clouds.12 mph93%30.18 "Hg3 mi
9:00 AM43 °FOvercast.14 mph87%30.18 "HgN/A
8:00 AM45 °FOvercast.15 mph81%30.15 "HgN/A
7:00 AM46 °FOvercast.15 mph76%30.12 "HgN/A
6:00 AM48 °FOvercast.15 mph71%30.09 "HgN/A
5:00 AM48 °FOvercast.9 mph71%30.07 "HgN/A
4:00 AM46 °FPassing clouds.5 mph82%30.07 "HgN/A
3:00 AM46 °FPassing clouds.6 mph82%30.04 "HgN/A
2:00 AM48 °FPassing clouds.6 mph76%30.04 "HgN/A
1:00 AM48 °FPartly cloudy.14 mph71%30.04 "HgN/A
12:00 AM50 °FPartly cloudy.16 mph71%30.01 "HgN/A
Weather by CustomWeather, © 2016

See weather overviewHow to use our weather pages